Location: Fort Wayne
(41.1310°N, 85.1290°W)
Time: 11:24:39
(UTC-04:00)

Tiros 1 despin weight - Visible Passes

Search period start: 17 August 2017 00:00
Search period end: 27 August 2017 00:00
Orbit: 595 x 644 km, 48.2° (Epoch: 17 August)

Date Brightness Start Highest point End Pass type
(mag) Time Alt. Az. Time Alt. Az. Time Alt. Az.
17 Aug ? 00:16:53 10° WNW 00:19:51 29° NNW 00:19:51 29° NNW visible
17 Aug ? 21:09:29 10° WSW 21:13:56 81° NNW 21:18:27 10° ENE visible
17 Aug ? 22:51:49 10° WNW 22:55:56 35° N 22:58:49 18° NE visible
18 Aug ? 00:34:01 10° WNW 00:35:53 22° NW 00:35:53 22° NW visible
18 Aug ? 21:26:40 10° W 21:31:00 52° NNW 21:35:25 10° ENE visible
18 Aug ? 23:09:09 10° WNW 23:13:14 33° N 23:14:47 26° NE visible
19 Aug ? 00:51:02 10° WNW 00:51:51 15° NW 00:51:51 15° NW visible
19 Aug ? 21:44:00 10° W 21:48:11 39° NNW 21:52:27 10° ENE visible
19 Aug ? 23:26:22 10° WNW 23:30:30 35° N 23:30:44 35° NNE visible
20 Aug ? 22:01:23 10° WNW 22:05:27 33° N 22:09:35 10° ENE visible
20 Aug ? 23:43:27 10° WNW 23:46:39 36° NNW 23:46:39 36° NNW visible
21 Aug ? 22:18:41 10° WNW 22:22:44 33° N 22:25:30 18° ENE visible
22 Aug ? 00:00:26 10° WNW 00:02:34 27° NW 00:02:34 27° NW visible
22 Aug ? 20:53:35 10° WNW 20:57:41 36° N 21:01:51 10° ENE visible
22 Aug ? 22:35:50 10° WNW 22:40:01 37° NNE 22:41:25 30° NE visible
23 Aug ? 00:17:24 10° WNW 00:18:28 17° WNW 00:18:28 17° WNW visible
23 Aug ? 21:10:56 10° WNW 21:14:58 32° N 21:19:03 10° ENE visible
23 Aug ? 22:52:51 10° WNW 22:57:13 49° NNE 22:57:21 48° NNE visible
24 Aug ? 21:28:10 10° WNW 21:32:15 34° N 21:36:14 11° ENE visible
24 Aug ? 23:09:49 10° WNW 23:13:18 52° NW 23:13:18 52° NW visible
25 Aug ? 21:45:15 10° WNW 21:49:29 41° NNE 21:52:13 20° ENE visible
25 Aug ? 23:26:49 10° WNW 23:29:17 32° WNW 23:29:17 32° WNW visible
26 Aug ? 22:02:15 10° WNW 22:06:39 57° NNE 22:08:13 36° E visible
26 Aug ? 23:44:00 10° WNW 23:45:17 18° W 23:45:17 18° W visible
